Weather History for Poplar Bluff, MO

Change the Weather History Date:

Sunday, November 30, 2014

  Actual Average Record
Temperature  
Mean Temperature 62 °F -  
Max Temperature 71 °F 51 °F 75 °F (1933)
Min Temperature 48 °F 33 °F 9 °F (1929)
Degree Days  
Heating Degree Days 3    
Growing Degree Days 12 (Base 50)    
Moisture  
Dew Point 55 °F    
Average Humidity 74    
Maximum Humidity 86    
Minimum Humidity 63    
Precipitation  
Precipitation 0.07 in - - ()
Sea Level Pressure  
Sea Level Pressure 29.95 in    
Wind  
Wind Speed 16 mph (SSW)    
Max Wind Speed 26 mph    
Max Gust Speed 34 mph    
Visibility 10 miles    
Events Rain    
Averages and records for this station are not official NWS values.
T = Trace of Precipitation, MM = Missing Value Source: NWS Daily Summary

Daily Weather History Graph

Daily Weather History Graph

Search for Another Location

Airport:

Trip Planner

Search our weather history database for the weather conditions in past years. The results will help you decide how hot, cold, wet, or windy it might be!

Date:

Astronomy

Nov. 30, 2014 Rise Set
Actual Time 6:54 AM CST 4:45 PM CST
Civil Twilight 6:25 AM CST 5:13 PM CST
Nautical Twilight 5:53 AM CST 5:45 PM CST
Astronomical Twilight 5:22 AM CST 6:17 PM CST
Moon 1:06 PM CST (11/30) 12:34 AM CST (11/30)
Length of Visible Light 10h 47m
Length of Day
9h 51m
Waxing Gibbous, 65% of the Moon is Illuminated
Nov 30
Waxing Gibbous
Dec 6
Full
Dec 14
Last Quarter
Dec 21
New
Dec 28
First Quarter

Hourly Weather History & Observations

Time (CST) Temp. Dew Point Humidity Pressure Visibility Wind Dir Wind Speed Gust Speed Precip Events Conditions
12:53 AM 61.0 °F 53.1 °F 75% 29.83 in 10.0 mi SSW 17.3 mph 27.6 mph N/A   Partly Cloudy
1:53 AM 61.0 °F 54.0 °F 78% 29.84 in 10.0 mi SSW 17.3 mph 25.3 mph N/A   Mostly Cloudy
2:53 AM 60.1 °F 54.0 °F 80% 29.85 in 10.0 mi SSW 15.0 mph 24.2 mph N/A   Partly Cloudy
3:53 AM 60.1 °F 54.0 °F 80% 29.85 in 10.0 mi SSW 13.8 mph 23.0 mph N/A   Clear
4:53 AM 60.1 °F 54.0 °F 80% 29.86 in 10.0 mi South 16.1 mph 24.2 mph N/A   Clear
5:31 AM 60.1 °F 54.0 °F 80% 29.87 in 10.0 mi South 13.8 mph - N/A   Mostly Cloudy
5:53 AM 60.1 °F 54.0 °F 80% 29.87 in 10.0 mi SSW 12.7 mph 21.9 mph N/A   Mostly Cloudy
6:53 AM 61.0 °F 55.0 °F 81% 29.88 in 10.0 mi SSW 18.4 mph 26.5 mph N/A   Overcast
7:53 AM 62.1 °F 55.9 °F 80% 29.90 in 10.0 mi SSW 19.6 mph 25.3 mph N/A   Overcast
8:53 AM 64.0 °F 55.9 °F 75% 29.92 in 10.0 mi SSW 21.9 mph 33.4 mph N/A   Overcast
9:31 AM 64.9 °F 55.9 °F 73% 29.93 in 10.0 mi SSW 16.1 mph 31.1 mph N/A   Overcast
9:53 AM 66.0 °F 57.0 °F 73% 29.93 in 10.0 mi SSW 20.7 mph 32.2 mph N/A   Overcast
10:53 AM 66.9 °F 57.0 °F 70% 29.93 in 10.0 mi SSW 26.5 mph 34.5 mph N/A   Overcast
11:21 AM 66.9 °F 57.0 °F 70% 29.93 in 10.0 mi SW 18.4 mph 24.2 mph N/A   Overcast
11:53 AM 68.0 °F 57.0 °F 68% 29.92 in 10.0 mi SSW 17.3 mph 24.2 mph N/A   Overcast
12:26 PM 70.0 °F 57.9 °F 65% 29.91 in 10.0 mi SSW 21.9 mph 28.8 mph N/A   Overcast
12:53 PM 71.1 °F 57.9 °F 63% 29.90 in 10.0 mi SSW 23.0 mph 28.8 mph N/A   Overcast
1:21 PM 71.1 °F 57.9 °F 63% 29.90 in 10.0 mi SSW 21.9 mph 28.8 mph N/A   Overcast
1:32 PM 71.1 °F 57.9 °F 63% 29.90 in 10.0 mi SSW 18.4 mph 26.5 mph N/A   Overcast
1:53 PM 71.1 °F 57.9 °F 63% 29.90 in 10.0 mi SW 20.7 mph 29.9 mph N/A   Overcast
2:53 PM 71.1 °F 57.9 °F 63% 29.91 in 10.0 mi SSW 16.1 mph 27.6 mph N/A   Mostly Cloudy
3:53 PM 69.1 °F 57.9 °F 68% 29.94 in 10.0 mi SSW 16.1 mph 26.5 mph N/A   Overcast
4:53 PM 66.9 °F 57.0 °F 70% 29.97 in 10.0 mi SSW 15.0 mph - N/A   Scattered Clouds
5:53 PM 66.0 °F 57.0 °F 73% 30.00 in 10.0 mi SSW 12.7 mph - N/A   Partly Cloudy
6:53 PM 64.9 °F 57.0 °F 75% 30.02 in 10.0 mi SSW 13.8 mph - N/A   Clear
7:53 PM 63.0 °F 55.9 °F 78% 30.05 in 10.0 mi SSW 8.1 mph - N/A   Clear
8:53 PM 60.1 °F 55.9 °F 86% 30.07 in 10.0 mi SSW 6.9 mph - N/A   Clear
9:53 PM 62.1 °F 57.0 °F 84% 30.10 in 10.0 mi NNW 3.5 mph - N/A   Overcast
10:04 PM 62.1 °F 57.0 °F 84% 30.11 in 10.0 mi NNW 8.1 mph - N/A   Overcast
10:53 PM 53.1 °F 44.1 °F 71% 30.16 in 10.0 mi North 15.0 mph - N/A   Overcast
11:53 PM 48.9 °F 42.1 °F 77% 30.19 in 10.0 mi NNE 9.2 mph - 0.07 in Rain Light Rain